| time (UTC) | temp F | wind direction | speed MPH | gust MPH | rain 1hr in | rain 24hr in | rain mn in | humidity % | barometer mb |
| 20260505022617 | 57 | 29 | 5.0 | 13.0 | 0.00 | 0.00 | 0.00 | 45 | 1008.5 |
| 20260505022116 | 57 | 252 | 7.0 | 14.0 | 0.00 | 0.00 | 0.00 | 45 | 1008.2 |
| 20260505021641 | 58 | 28 | 5.0 | 14.0 | 0.00 | 0.00 | 0.00 | 44 | 1008.0 |
| 20260505021122 | 58 | 103 | 7.0 | 16.0 | 0.00 | 0.00 | 0.00 | 44 | 1007.8 |
| 20260505020628 | 58 | 32 | 7.0 | 16.0 | 0.00 | 0.00 | 0.00 | 44 | 1008.1 |
| 20260505020127 | 58 | 19 | 9.0 | 16.0 | 0.00 | 0.00 | 0.00 | 45 | 1008.0 |
| 20260505015638 | 58 | 48 | 5.0 | 16.0 | 0.00 | 0.00 | 0.00 | 45 | 1008.0 |
| 20260505015117 | 58 | 354 | 4.0 | 14.0 | 0.00 | 0.00 | 0.00 | 45 | 1008.0 |
| 20260505014644 | 58 | 63 | 7.0 | 18.0 | 0.00 | 0.00 | 0.00 | 45 | 1007.6 |
| 20260505014139 | 58 | 19 | 7.0 | 18.0 | 0.00 | 0.00 | 0.00 | 45 | 1007.5 |
| 20260505013642 | 59 | 43 | 3.0 | 16.0 | 0.00 | 0.00 | 0.00 | 44 | 1007.3 |
| 20260505013118 | 60 | 71 | 6.0 | 17.0 | 0.00 | 0.00 | 0.00 | 43 | 1007.6 |
| 20260505012626 | 60 | 69 | 4.0 | 18.0 | 0.00 | 0.00 | 0.00 | 42 | 1007.2 |
| 20260505012146 | 61 | 36 | 7.0 | 18.0 | 0.00 | 0.00 | 0.00 | 41 | 1007.2 |
| 20260505011632 | 61 | 324 | 4.0 | 17.0 | 0.00 | 0.00 | 0.00 | 41 | 1006.8 |
| 20260505011131 | 61 | 92 | 5.0 | 15.0 | 0.00 | 0.00 | 0.00 | 41 | 1007.1 |
| 20260505010636 | 62 | 52 | 6.0 | 15.0 | 0.00 | 0.00 | 0.00 | 40 | 1006.9 |
| 20260505010122 | 62 | 52 | 2.0 | 15.0 | 0.00 | 0.00 | 0.00 | 39 | 1007.0 |
| 20260505005629 | 63 | 33 | 6.0 | 14.0 | 0.00 | 0.00 | 0.00 | 38 | 1006.8 |
| 20260505005126 | 64 | 44 | 7.0 | 17.0 | 0.00 | 0.00 | 0.00 | 38 | 1006.7 |
| 20260505004633 | 64 | 48 | 4.0 | 17.0 | 0.00 | 0.00 | 0.00 | 37 | 1006.7 |
| 20260505004115 | 65 | 54 | 6.0 | 17.0 | 0.00 | 0.00 | 0.00 | 36 | 1006.6 |
| 20260505003622 | 65 | 31 | 8.0 | 16.0 | 0.00 | 0.00 | 0.00 | 36 | 1006.4 |
| 20260505003121 | 65 | 96 | 7.0 | 16.0 | 0.00 | 0.00 | 0.00 | 36 | 1006.2 |
| 20260505002626 | 66 | 285 | 5.0 | 16.0 | 0.00 | 0.00 | 0.00 | 36 | 1006.2 |
| 20260505002122 | 66 | 350 | 7.0 | 16.0 | 0.00 | 0.00 | 0.00 | 35 | 1006.2 |
| 20260505001630 | 67 | 343 | 5.0 | 15.0 | 0.00 | 0.00 | 0.00 | 35 | 1006.0 |
| 20260505001147 | 68 | 1 | 6.0 | 13.0 | 0.00 | 0.00 | 0.00 | 35 | 1005.9 |
| 20260505000650 | 68 | 60 | 7.0 | 13.0 | 0.00 | 0.00 | 0.00 | 34 | 1005.8 |
| 20260505000134 | 69 | 192 | 5.0 | 19.0 | 0.00 | 0.00 | 0.00 | 34 | 1005.7 |
| 20260504235657 | 69 | 23 | 8.0 | 19.0 | 0.00 | 0.00 | 0.00 | 35 | 1005.7 |
| 20260504235132 | 69 | 186 | 4.0 | 17.0 | 0.00 | 0.00 | 0.00 | 35 | 1005.7 |
| 20260504234636 | 69 | 307 | 6.0 | 17.0 | 0.00 | 0.00 | 0.00 | 34 | 1005.7 |
| 20260504234133 | 70 | 130 | 7.0 | 16.0 | 0.00 | 0.00 | 0.00 | 34 | 1005.6 |
| 20260504233621 | 70 | 4 | 5.0 | 16.0 | 0.00 | 0.00 | 0.00 | 33 | 1005.5 |
| 20260504233117 | 70 | 37 | 5.0 | 14.0 | 0.00 | 0.00 | 0.00 | 33 | 1005.4 |
| 20260504232624 | 71 | 29 | 6.0 | 14.0 | 0.00 | 0.00 | 0.00 | 32 | 1005.2 |
| 20260504232122 | 72 | 65 | 7.0 | 14.0 | 0.00 | 0.00 | 0.00 | 31 | 1005.2 |
| 20260504231628 | 72 | 357 | 4.0 | 11.0 | 0.00 | 0.00 | 0.00 | 32 | 1005.1 |
| 20260504231128 | 73 | 71 | 6.0 | 13.0 | 0.00 | 0.00 | 0.00 | 31 | 1005.0 |
| 20260504230619 | 73 | 31 | 9.0 | 13.0 | 0.00 | 0.00 | 0.00 | 31 | 1004.9 |
| 20260504230123 | 74 | 47 | 7.0 | 12.0 | 0.00 | 0.00 | 0.00 | 30 | 1004.8 |
| 20260504225626 | 74 | 19 | 4.0 | 18.0 | 0.00 | 0.00 | 0.00 | 31 | 1004.6 |
| 20260504225144 | 74 | 74 | 4.0 | 18.0 | 0.00 | 0.00 | 0.00 | 31 | 1004.5 |
| 20260504224631 | 74 | 28 | 5.0 | 16.0 | 0.00 | 0.00 | 0.00 | 31 | 1004.4 |
| 20260504224149 | 74 | 35 | 5.0 | 16.0 | 0.00 | 0.00 | 0.00 | 30 | 1004.4 |
| 20260504223648 | 75 | 40 | 6.0 | 12.0 | 0.00 | 0.00 | 0.00 | 30 | 1004.3 |
| 20260504223149 | 76 | 94 | 6.0 | 12.0 | 0.00 | 0.00 | 0.00 | 30 | 1004.2 |
| 20260504222620 | 76 | 111 | 4.0 | 12.0 | 0.00 | 0.00 | 0.00 | 31 | 1003.9 |
| 20260504222120 | 76 | 354 | 4.0 | 13.0 | 0.00 | 0.00 | 0.00 | 30 | 1003.8 |
| 20260504221624 | 76 | 331 | 6.0 | 14.0 | 0.00 | 0.00 | 0.00 | 30 | 1003.7 |
| 20260504221120 | 76 | 19 | 4.0 | 14.0 | 0.00 | 0.00 | 0.00 | 30 | 1003.7 |
| 20260504220625 | 77 | 94 | 4.0 | 13.0 | 0.00 | 0.00 | 0.00 | 31 | 1003.4 |
| 20260504220127 | 77 | 327 | 6.0 | 13.0 | 0.00 | 0.00 | 0.00 | 30 | 1003.5 |
| 20260504215632 | 77 | 66 | 5.0 | 18.0 | 0.00 | 0.00 | 0.00 | 30 | 1003.5 |
| 20260504215152 | 77 | 328 | 5.0 | 18.0 | 0.00 | 0.00 | 0.00 | 30 | 1003.4 |
| 20260504214635 | 77 | 19 | 7.0 | 18.0 | 0.00 | 0.00 | 0.00 | 29 | 1003.5 |
| 20260504214132 | 78 | 353 | 6.0 | 14.0 | 0.00 | 0.00 | 0.00 | 30 | 1003.4 |
| 20260504213637 | 78 | 323 | 4.0 | 13.0 | 0.00 | 0.00 | 0.00 | 30 | 1003.4 |
| 20260504213134 | 78 | 79 | 4.0 | 13.0 | 0.00 | 0.00 | 0.00 | 31 | 1003.4 |
| 20260504212625 | 78 | 334 | 5.0 | 12.0 | 0.00 | 0.00 | 0.00 | 32 | 1003.3 |
| 20260504212130 | 78 | 14 | 3.0 | 12.0 | 0.00 | 0.00 | 0.00 | 31 | 1003.2 |
| 20260504211618 | 79 | 188 | 4.0 | 14.0 | 0.00 | 0.00 | 0.00 | 33 | 1003.2 |
| 20260504211121 | 78 | 44 | 5.0 | 14.0 | 0.00 | 0.00 | 0.00 | 32 | 1003.2 |
| 20260504210651 | 78 | 88 | 4.0 | 14.0 | 0.00 | 0.00 | 0.00 | 33 | 1003.2 |
| 20260504210115 | 79 | 79 | 4.0 | 12.0 | 0.00 | 0.00 | 0.00 | 32 | 1003.3 |
| 20260504205623 | 79 | 27 | 5.0 | 15.0 | 0.00 | 0.00 | 0.00 | 33 | 1003.2 |
| 20260504205121 | 79 | 307 | 6.0 | 20.0 | 0.00 | 0.00 | 0.00 | 33 | 1003.1 |
| 20260504204626 | 79 | 300 | 4.0 | 20.0 | 0.00 | 0.00 | 0.00 | 34 | 1003.2 |
| 20260504204122 | 79 | 47 | 2.0 | 11.0 | 0.00 | 0.00 | 0.00 | 35 | 1003.0 |
| 20260504203631 | 79 | 65 | 5.0 | 11.0 | 0.00 | 0.00 | 0.00 | 34 | 1003.0 |
| 20260504203129 | 80 | 318 | 4.0 | 8.0 | 0.00 | 0.00 | 0.00 | 35 | 1003.0 |
| 20260504202657 | 80 | 146 | 5.0 | 8.0 | 0.00 | 0.00 | 0.00 | 35 | 1002.9 |
| 20260504202114 | 80 | 327 | 4.0 | 9.0 | 0.00 | 0.00 | 0.00 | 34 | 1003.0 |
| 20260504201623 | 80 | 315 | 5.0 | 10.0 | 0.00 | 0.00 | 0.00 | 35 | 1003.0 |
| 20260504201121 | 80 | 340 | 5.0 | 10.0 | 0.00 | 0.00 | 0.00 | 36 | 1002.9 |
| 20260504200627 | 80 | 33 | 2.0 | 10.0 | 0.00 | 0.00 | 0.00 | 35 | 1002.9 |
| 20260504200125 | 80 | 266 | 2.0 | 10.0 | 0.00 | 0.00 | 0.00 | 36 | 1002.9 |
| 20260504195628 | 80 | 235 | 1.0 | 13.0 | 0.00 | 0.00 | 0.00 | 38 | 1002.8 |
| 20260504195129 | 80 | 24 | 5.0 | 13.0 | 0.00 | 0.00 | 0.00 | 35 | 1002.8 |
| 20260504194636 | 79 | 40 | 5.0 | 10.0 | 0.00 | 0.00 | 0.00 | 36 | 1002.8 |
| 20260504194133 | 80 | 329 | 5.0 | 9.0 | 0.00 | 0.00 | 0.00 | 36 | 1002.8 |
| 20260504193623 | 80 | 342 | 5.0 | 12.0 | 0.00 | 0.00 | 0.00 | 35 | 1002.8 |
| 20260504193120 | 80 | 30 | 8.0 | 12.0 | 0.00 | 0.00 | 0.00 | 34 | 1002.7 |
| 20260504192626 | 80 | 59 | 6.0 | 12.0 | 0.00 | 0.00 | 0.00 | 34 | 1002.7 |
| 20260504192144 | 80 | 312 | 6.0 | 12.0 | 0.00 | 0.00 | 0.00 | 35 | 1002.7 |
| 20260504191648 | 80 | 292 | 7.0 | 13.0 | 0.00 | 0.00 | 0.00 | 34 | 1002.6 |
| 20260504191125 | 80 | 305 | 6.0 | 13.0 | 0.00 | 0.00 | 0.00 | 34 | 1002.6 |
| 20260504190628 | 81 | 284 | 4.0 | 13.0 | 0.00 | 0.00 | 0.00 | 34 | 1002.6 |
| 20260504190132 | 80 | 332 | 4.0 | 19.0 | 0.00 | 0.00 | 0.00 | 33 | 1002.4 |
| 20260504185636 | 81 | 317 | 6.0 | 19.0 | 0.00 | 0.00 | 0.00 | 32 | 1002.5 |
| 20260504185118 | 81 | 249 | 2.0 | 11.0 | 0.00 | 0.00 | 0.00 | 33 | 1002.4 |
| 20260504184625 | 81 | 308 | 3.0 | 13.0 | 0.00 | 0.00 | 0.00 | 33 | 1002.4 |
| 20260504184131 | 82 | 250 | 4.0 | 12.0 | 0.00 | 0.00 | 0.00 | 31 | 1002.3 |
| 20260504183655 | 82 | 341 | 4.0 | 9.0 | 0.00 | 0.00 | 0.00 | 32 | 1002.2 |
| 20260504183135 | 81 | 255 | 3.0 | 9.0 | 0.00 | 0.00 | 0.00 | 31 | 1002.2 |
| 20260504182623 | 81 | 314 | 5.0 | 13.0 | 0.00 | 0.00 | 0.00 | 31 | 1002.3 |
| 20260504182121 | 81 | 284 | 5.0 | 15.0 | 0.00 | 0.00 | 0.00 | 31 | 1002.3 |
| 20260504181623 | 80 | 255 | 5.0 | 15.0 | 0.00 | 0.00 | 0.00 | 32 | 1002.3 |
| 20260504181118 | 81 | 262 | 5.0 | 15.0 | 0.00 | 0.00 | 0.00 | 31 | 1002.3 |
| 20260504180623 | 81 | 277 | 4.0 | 11.0 | 0.00 | 0.00 | 0.00 | 32 | 1002.3 |
| 20260504180145 | 81 | 57 | 5.0 | 9.0 | 0.00 | 0.00 | 0.00 | 32 | 1002.4 |
| 20260504175631 | 80 | 344 | 3.0 | 11.0 | 0.00 | 0.00 | 0.00 | 32 | 1002.5 |
| 20260504175117 | 80 | 291 | 3.0 | 13.0 | 0.00 | 0.00 | 0.00 | 32 | 1002.5 |
| 20260504174623 | 80 | 279 | 4.0 | 13.0 | 0.00 | 0.00 | 0.00 | 32 | 1002.6 |
| 20260504174142 | 79 | 285 | 3.0 | 16.0 | 0.00 | 0.00 | 0.00 | 35 | 1002.6 |
| 20260504173628 | 79 | 296 | 7.0 | 16.0 | 0.00 | 0.00 | 0.00 | 33 | 1002.7 |
| 20260504173127 | 79 | 222 | 5.0 | 11.0 | 0.00 | 0.00 | 0.00 | 34 | 1002.7 |
| 20260504172630 | 79 | 286 | 5.0 | 13.0 | 0.00 | 0.00 | 0.00 | 34 | 1002.6 |
| 20260504172128 | 79 | 19 | 5.0 | 13.0 | 0.00 | 0.00 | 0.00 | 33 | 1002.7 |
| 20260504171629 | 79 | 212 | 4.0 | 10.0 | 0.00 | 0.00 | 0.00 | 35 | 1002.7 |
| 20260504171133 | 78 | 273 | 4.0 | 10.0 | 0.00 | 0.00 | 0.00 | 37 | 1002.8 |
| 20260504170619 | 78 | 183 | 3.0 | 8.0 | 0.00 | 0.00 | 0.00 | 38 | 1002.6 |
| 20260504170123 | 77 | 9 | 4.0 | 9.0 | 0.00 | 0.00 | 0.00 | 38 | 1002.8 |
| 20260504160126 | 73 | 243 | 3.0 | 7.0 | 0.00 | 0.00 | 0.00 | 44 | 1003.0 |
| 20260504151119 | 69 | 220 | 3.0 | 7.0 | 0.00 | 0.00 | 0.00 | 47 | 1002.9 |
| 20260504150624 | 68 | 267 | 4.0 | 7.0 | 0.00 | 0.00 | 0.00 | 47 | 1003.0 |
| 20260504150130 | 68 | 261 | 3.0 | 7.0 | 0.00 | 0.00 | 0.00 | 48 | 1002.9 |
| 20260504141125 | 63 | 358 | 3.0 | 8.0 | 0.00 | 0.00 | 0.00 | 52 | 1003.5 |
| 20260504140628 | 62 | 260 | 5.0 | 8.0 | 0.00 | 0.00 | 0.00 | 53 | 1003.5 |
| 20260504140133 | 62 | 248 | 1.0 | 7.0 | 0.00 | 0.00 | 0.00 | 55 | 1003.6 |
| 20260504130652 | 58 | 285 | 2.0 | 6.0 | 0.00 | 0.00 | 0.00 | 62 | 1003.5 |
| 20260504130127 | 57 | 264 | 1.0 | 6.0 | 0.00 | 0.00 | 0.00 | 66 | 1003.5 |
| 20260504120119 | 50 | 264 | 0.0 | 1.0 | 0.00 | 0.00 | 0.00 | 74 | 1003.2 |
| 20260504110629 | 51 | 264 | 0.0 | 0.0 | 0.00 | 0.00 | 0.00 | 72 | 1003.5 |
| 20260504043129 | 60 | 264 | 0.0 | 0.0 | 0.00 | 0.00 | 0.00 | 57 | 1007.6 |
| 20260504042632 | 60 | 264 | 0.0 | 0.0 | 0.00 | 0.00 | 0.00 | 56 | 1007.6 |
| 20260504042133 | 60 | 264 | 0.0 | 1.0 | 0.00 | 0.00 | 0.00 | 55 | 1007.6 |
| 20260504041619 | 61 | 264 | 0.0 | 1.0 | 0.00 | 0.00 | 0.00 | 56 | 1007.6 |
| 20260504041135 | 61 | 264 | 0.0 | 1.0 | 0.00 | 0.00 | 0.00 | 55 | 1007.8 |
| 20260504040618 | 61 | 264 | 0.0 | 1.0 | 0.00 | 0.00 | 0.00 | 56 | 1007.9 |
| 20260504040135 | 61 | 264 | 0.0 | 1.0 | 0.00 | 0.00 | 0.00 | 55 | 1007.9 |
| 20260504035625 | 61 | 264 | 0.0 | 1.0 | 0.00 | 0.00 | 0.00 | 55 | 1007.9 |
| 20260504035123 | 62 | 264 | 0.0 | 0.0 | 0.00 | 0.00 | 0.00 | 55 | 1008.0 |
| 20260504034628 | 62 | 264 | 0.0 | 1.0 | 0.00 | 0.00 | 0.00 | 54 | 1008.1 |
| 20260504034143 | 62 | 264 | 0.0 | 1.0 | 0.00 | 0.00 | 0.00 | 53 | 1008.1 |
| 20260504033626 | 62 | 264 | 0.0 | 0.0 | 0.00 | 0.00 | 0.00 | 53 | 1008.2 |
| 20260504033119 | 62 | 264 | 0.0 | 0.0 | 0.00 | 0.00 | 0.00 | 53 | 1008.2 |
| 20260504032623 | 63 | 264 | 0.0 | 0.0 | 0.00 | 0.00 | 0.00 | 52 | 1008.2 |
| 20260504032124 | 63 | 264 | 0.0 | 0.0 | 0.00 | 0.00 | 0.00 | 53 | 1008.3 |
| 20260504031653 | 63 | 264 | 0.0 | 0.0 | 0.00 | 0.00 | 0.00 | 53 | 1008.3 |
| 20260504031130 | 63 | 264 | 0.0 | 0.0 | 0.00 | 0.00 | 0.00 | 52 | 1008.4 |
| 20260504030633 | 63 | 264 | 0.0 | 0.0 | 0.00 | 0.00 | 0.00 | 51 | 1008.4 |
| 20260504030131 | 63 | 264 | 0.0 | 0.0 | 0.00 | 0.00 | 0.00 | 51 | 1008.3 |
| 20260504025635 | 64 | 264 | 0.0 | 0.0 | 0.00 | 0.00 | 0.00 | 51 | 1008.4 |
| 20260504025131 | 64 | 264 | 0.0 | 1.0 | 0.00 | 0.00 | 0.00 | 50 | 1008.4 |
| 20260504024635 | 64 | 264 | 0.0 | 1.0 | 0.00 | 0.00 | 0.00 | 51 | 1008.4 |
| 20260504024132 | 64 | 264 | 0.0 | 0.0 | 0.00 | 0.00 | 0.00 | 50 | 1008.4 |
| 20260504023657 | 64 | 264 | 0.0 | 0.0 | 0.00 | 0.00 | 0.00 | 50 | 1008.5 |
| 20260504023114 | 64 | 264 | 0.0 | 0.0 | 0.00 | 0.00 | 0.00 | 49 | 1008.4 |